COSMOS 1953

Last updated on Thu Oct 30 2025 00:02:15 GMT+0000 (Coordinated Universal Time)

1 19210U 88050A 25302.45920763 .00008095 00000+0 31104-3 0 9995 2 19210 82.5067 289.9953 0010547 217.4913 142.5590 15.26225411 17757
UTC large
Height (km)
Speed (km/s)
/
Latitude / Longitude
Inclination (degrees)
Orbital Period (minutes)
Azimuth
Elevation
Range (km)
Doppler Factor

Next 0 passes for location: London (51.5072 / 0.1276)

Sorry there are no passes over London.